Tracking 19795 objects as of 17-Jul-2019
HD Live streaming from Space Station
objects crossing your sky now

FLOCK 3P 2

Track FLOCK 3P 2 now!
10-day predictions
FLOCK 3P 2 is classified as:


NORAD ID: 41966
Int'l Code: 2017-008U
Perigee: 490.2 km
Apogee: 503.0 km
Inclination: 97.4 °
Period: 94.4 minutes
Semi major axis: 6867 km
RCS: Unknown
Launch date: February 15, 2017
Source: United States (US)
Launch site: SRIHARIKOTA (SRI)
aabbcc
Your satellite tracking list
Your tracking list is empty




NASA's NSSDC Master Catalog

Two Line Element Set (TLE):
1 41966U 17008U   19198.18184622  .00000911  00000-0  38835-4 0  9994
2 41966  97.4053 264.8553 0009298  48.6537 311.5500 15.25443293134146
Source of the keplerian elements: AFSPC